MIDAS 4 DEB, 195

Orbit data source: Space-Track

MIDAS 4 DEB, 195 is space debris in LEO originally from a launch on Sat, 21 Oct 1961 UTC launched from the Air Force Western Test Range (AFWTR). Debris objects in space refer to the collection of defunct objects orbiting the Earth. Examples of debris include non-operational satellites, rocket bodies, and fragments generated from explosions, collisions, or faulty payload assembly.

Loading next visibility...
Identifier
195, 1961-028D
Orbit
LEO
Country
Flag of USUS
Related business
Manufacturer
Unknown
Mission
Spacecraft
Bus & Motor
Unknown
Mass
~10 kg wet, ~10 kg dry
Launch date (UTC)
1961-10-21 (64 years ago)
Launch vehicle
Unknown
Launch site
Air Force Western Test Range (AFWTR)
Object type
Payload
Rocket body
Debris
Shape & HBR
Unknown
Radar Cross Section
Medium (>0.1 m² and <1 m²)

Expand to show TLE details & history
Last TLE update: 2 days ago

TLE from 2 days ago
0 MIDAS 4 DEB
1 00195U 61028D   25241.11864612 -.00000015  00000-0 -53333-2 0  9992
2 00195  95.8530 143.2553 0129256 357.1267   2.8833  8.65621693 17756
Epoch: 2025-08-29T02:50Z
TLE epoch observation values (Epoch: 2025-08-29T02:50:51.024Z)
Latitude
-0.00003°
Longitude
122.97082°
Altitude
3,514.245 km
Speed
6.389 km/s
True Right ascension
09h 33m 01s
True Declination
0° 00' 00"
Sunlit
Object was in daylight at epoch
Visualization orbit readout
Latitude
Unknown
Longitude
Unknown
Altitude
Unknown
Speed
Unknown
Apparent Right ascension
Unknown
Apparent Declination
Unknown
Sunlit
N/A
Visualization observer readout
Local Sidereal Time
23:27:07
Azimuth
Unknown
Elevation
Unknown
Doppler factor
Unknown
Orbital elements
Apogee altitude
3,768.807 km
Perigee altitude
3,509.843 km
Semi-major axis
10,017.462 km
Eccentricity
0.01293
Inclination
95.853°
RAAN
143.2553°
Arg. of periapsis
357.1267°
True anomaly
2.95903°
Mean anomaly
2.8833°
Eccentric anomaly
2.92104°
Mean motion
2.16474 °/min
Orbital period
166.3 mins
BSTAR
-0.0053333
Loading maneuver chart data...
Computing Atmospheric mass density...
Loading historical data...
Loading historical data...
Loading historical data...
Loading historical data...
Loading historical data...
Loading historical data...
Loading historical data...

Documentation

Showing up to 5 results
|